Location: Bergnershof
(48.9468°N, 10.9431°E)
Time: 23:12:16
(UTC+00:00)

Okean 1 - Visible Passes

Search period start: 24 June 2021 00:00
Search period end: 04 July 2021 00:00
Orbit: 538 x 554 km, 82.5° (Epoch: 24 June)

Date Brightness Start Highest point End Pass type
(mag) Time Alt. Az. Time Alt. Az. Time Alt. Az.
27 Jun 4.4 02:31:04 10° N 02:35:01 48° ENE 02:38:56 10° SSE visible
28 Jun 4.3 02:25:32 10° N 02:29:30 51° ENE 02:33:27 10° SSE visible
29 Jun 4.2 02:19:58 10° N 02:23:59 54° ENE 02:27:57 10° SSE visible
30 Jun 4.0 02:14:27 10° N 02:18:28 57° ENE 02:22:27 10° SSE visible
01 Jul 3.9 02:08:54 10° N 02:12:57 61° ENE 02:16:57 10° SSE visible
02 Jul 3.8 02:03:22 10° N 02:07:25 65° E 02:11:26 10° SSE visible
03 Jul 3.7 01:57:49 10° N 02:01:54 68° E 02:05:55 10° SSE visible
